This demonstration page uses our WeatherBlox Daily Observations layout. Learn more.

39.29038, -76.61219

Hourly Observations for September 19, 2020

Temp ( °F °C ) Dew Point ( °F °C ) Humidity (%) Winds ( mph kmh ) Pressure ( in mb ) Visibility ( mi km ) Precip ( " mm )
12:54 am 00:54 Clear 57 13.9 32 0 39 39 NNE 12 19 30.2 1023 10 16.0934 0 0
1:54 am 01:54 Clear 55 12.8 33 0.6 44 44 N 10 17 30.22 1023 10 16.0934 0 0
2:54 am 02:54 Clear 53 11.7 33 0.6 47 47 NNE 7 11 30.24 1024 10 16.0934 0 0
3:54 am 03:54 Clear 52 11.1 33 0.6 49 49 N 9 15 30.24 1024 10 16.0934 0 0
4:54 am 04:54 Mostly Clear 51 10.6 32 0 48 48 N 12 19 30.26 1025 10 16.0934 0 0
5:54 am 05:54 Mostly Clear 50 10 33 0.6 52 52 VRB 7 11 30.27 1025 10 16.0934 0 0
6:54 am 06:54 Mostly Sunny 49 9.4 33 0.6 55 55 N 6 9 30.29 1026 10 16.0934 0 0
7:54 am 07:54 Partly Cloudy 50 10 33 0.6 52 52 N 8 13 30.31 1027 10 16.0934 0 0
8:54 am 08:54 Partly Cloudy 54 12.2 32 0 43 43 NNE 10 17 30.33 1027 10 16.0934 0 0
9:54 am 09:54 Partly Cloudy 57 13.9 31 -0.6 37 37 NE 12 19 30.35 1028 10 16.0934 0 0
10:54 am 10:54 Partly Cloudy 59 15 31 -0.6 35 35 ENE 13 20 30.36 1028 10 16.0934 0 0
11:54 am 11:54 Partly Cloudy 61 16.1 32 0 34 34 NNE 7 11 30.36 1028 10 16.0934 0 0
12:54 pm 12:54 Partly Cloudy 62 16.7 32 0 32 32 NNE 8 13 30.35 1028 10 16.0934 0 0
1:54 pm 13:54 Partly Cloudy 65 18.3 33 0.6 31 31 ENE 9 15 30.33 1027 10 16.0934 0 0
2:54 pm 14:54 Partly Cloudy 65 18.3 33 0.6 31 31 NE 8 13 30.32 1027 10 16.0934 0 0
3:54 pm 15:54 Partly Cloudy 66 18.9 33 0.6 29 29 VRB 6 9 30.31 1026 10 16.0934 0 0
4:54 pm 16:54 Partly Cloudy 66 18.9 35 1.7 32 32 N 7 11 30.3 1026 10 16.0934 0 0
5:54 pm 17:54 Partly Cloudy 65 18.3 33 0.6 31 31 NE 9 15 30.3 1026 10 16.0934 0 0
6:54 pm 18:54 Partly Cloudy 61 16.1 34 1.1 36 36 NNE 6 9 30.31 1026 10 16.0934 0 0
7:54 pm 19:54 Mostly Clear 58 14.4 34 1.1 41 41 NNE 5 7 30.32 1027 10 16.0934 0 0
8:54 pm 20:54 Mostly Clear 52 11.1 41 5 66 66 Calm 30.34 1028 10 16.0934 0 0
9:54 pm 21:54 Mostly Clear 50 10 41 5 71 71 Calm 30.35 1028 10 16.0934 0 0
10:54 pm 22:54 Clear 49 9.4 42 5.6 77 77 Calm 30.36 1028 10 16.0934 0 0
11:54 pm 23:54 Clear 46 7.8 42 5.6 86 86 W 3 6 30.36 1028 10 16.0934 0 0

Powered by AerisWeather